This is the latest recevied weather packets stored in our database for station/object OE-11343. If no packets are shown the sender has not sent any weather packets the latest 10 day(s).
| Time | Temp. | Humidity | Pressure | Rain* | Wind** | Luminosity | Snow |
|---|---|---|---|---|---|---|---|
| 1787808925 | 6.67° C | 70% | 718.1 hPa | - | - | 40 W/m² | - |
| 1787808325 | 6.67° C | 70% | 718.1 hPa | - | - | 30 W/m² | - |
| 1787807498 | 6.67° C | 71% | 718 hPa | - | - | 30 W/m² | - |
| 1787807125 | 6.67° C | 70% | 718.1 hPa | - | - | 20 W/m² | - |
| 1787806525 | 6.67° C | 71% | 718 hPa | - | - | 20 W/m² | - |
| 1787805697 | 6.67° C | 72% | 717.7 hPa | - | - | 10 W/m² | - |
| 1787805325 | 6.67° C | 69% | 717.8 hPa | - | - | 0 W/m² | - |
| 1787804725 | 6.67° C | 71% | 717.7 hPa | - | - | 0 W/m² | - |
| 1787803898 | 6.67° C | 70% | 717.6 hPa | - | - | 0 W/m² | - |
| 1787803525 | 6.67° C | 72% | 717.7 hPa | - | - | 0 W/m² | - |
| 1787802925 | 6.67° C | 76% | 717.6 hPa | - | - | 0 W/m² | - |
| 1787802325 | 6.67° C | 76% | 717.6 hPa | - | - | 0 W/m² | - |
| 1787801725 | 6.67° C | 74% | 717.6 hPa | - | - | 0 W/m² | - |
| 1787801125 | 6.67° C | 75% | 717.6 hPa | - | - | 0 W/m² | - |
| 1787800298 | 6.67° C | 71% | 717.6 hPa | - | - | 0 W/m² | - |
| 1787799925 | 6.67° C | 70% | 717.5 hPa | - | - | 0 W/m² | - |
| 1787799325 | 7.22° C | 66% | 717.5 hPa | - | - | 0 W/m² | - |
| 1787798497 | 7.22° C | 66% | 717.4 hPa | - | - | 0 W/m² | - |
| 1787798125 | 7.22° C | 62% | 717.4 hPa | - | - | 0 W/m² | - |
| 1787797525 | 7.78° C | 60% | 717.5 hPa | - | - | 0 W/m² | - |
| 1787796698 | 7.22° C | 64% | 717.4 hPa | - | - | 0 W/m² | - |
| 1787796324 | 5.56° C | 89% | 717.4 hPa | - | - | 0 W/m² | - |
| 1787795725 | 5.56° C | 93% | 717.4 hPa | - | - | 0 W/m² | - |
| 1787794898 | 5.56° C | 90% | 717.4 hPa | - | - | 0 W/m² | - |
| 1787794525 | 5.56° C | 90% | 717.4 hPa | - | - | 0 W/m² | - |
* Rain since midnight (hover to see other rain measurements)
** Current wind speed in m/s (hover to see current wind gust speed)